Temp
3 2 2 2 2 2 2 2 2 2 2 2 2 2 1 1 1 0 0 -0 -0 -0 -1 -1 -1 -1 -1 -1 -1 -1 -2 -2 -2 -2 -2 -2 -2 -2 -2 -2 -2 -2
3 3 3 3 2 2 2 2 2 2 2 2 2 2 1 1 1 1 -0 -1 -1 -1 -1 -1 -1 -1 -1 -1 -2 -2 -2 -2 -2 -2 -2 -2 -2 -2 -2 -2 -2 -2
3 3 3 3 3 3 2 2 2 2 2 2 2 2 1 1 1 1 -0 -1 -1 -1 -1 -1 -2 -2 -2 -2 -2 -2 -2 -2 -2 -2 -2 -2 -2 -2 -2 -2 -2 -2
3 3 3 3 3 2 2 2 2 2 2 2 2 2 1 1 1 1 0 -1 -1 -1 -2 -2 -2 -2 -2 -2 -2 -2 -2 -2 -2 -3 -3 -3 -3 -3 -2 -2 -2 -3
2 2 2 2 2 2 2 2 2 2 2 2 2 2 1 1 1 1 0 -1 -1 -2 -2 -2 -2 -2 -2 -2 -2 -2 -2 -2 -3 -3 -3 -3 -3 -3 -3 -3 -3 -3
2 2 2 2 2 2 2 2 2 2 2 2 1 1 1 1 1 1 0 -0 -1 -1 -2 -2 -2 -2 -2 -2 -3 -3 -3 -3 -3 -3 -3 -3 -3 -3 -3 -3 -3 -3
2 2 2 1 1 1 1 1 1 1 1 1 1 1 1 1 1 0 0 -0 -1 -1 -1 -2 -2 -2 -2 -3 -3 -3 -3 -3 -3 -3 -3 -3 -4 -4 -4 -4 -4 -4
1 1 1 1 1 1 1 1 1 1 1 1 1 1 1 0 0 0 -0 -1 -1 -1 -1 -2 -2 -2 -2 -3 -3 -3 -3 -3 -3 -3 -3 -4 -4 -4 -4 -4 -4 -4
1 1 1 1 1 1 1 1 0 0 0 0 0 0 0 -0 -0 -0 -1 -1 -1 -1 -2 -2 -2 -2 -2 -3 -3 -3 -3 -3 -3 -4 -4 -4 -4 -4 -4 -4 -4 -4
1 1 1 1 1 0 0 0 0 -0 -0 -0 -0 -1 -1 -1 -1 -1 -1 -1 -1 -1 -2 -2 -2 -2 -3 -3 -3 -3 -3 -4 -4 -4 -4 -4 -4 -4 -5 -5 -5 -5
1 1 0 0 -0 -0 -0 -0 -0 -1 -1 -1 -1 -1 -1 -1 -1 -2 -2 -2 -2 -2 -2 -2 -2 -3 -3 -3 -3 -3 -4 -4 -4 -4 -4 -4 -4 -5 -5 -5 -5 -5
0 -0 -0 -0 -1 -1 -1 -1 -1 -1 -1 -2 -2 -2 -2 -2 -2 -2 -2 -2 -2 -2 -2 -2 -3 -3 -3 -3 -3 -3 -4 -4 -4 -4 -4 -4 -5 -5 -5 -5 -5 -5
-1 -1 -1 -1 -1 -1 -1 -1 -1 -1 -2 -2 -2 -2 -2 -2 -2 -2 -2 -2 -2 -2 -3 -3 -3 -3 -3 -3 -3 -3 -4 -4 -4 -4 -4 -4 -5 -5 -5 -5 -5 -5
-1 -1 -1 -1 -1 -1 -1 -1 -1 -2 -2 -2 -3 -3 -3 -2 -2 -2 -2 -2 -3 -3 -3 -3 -3 -3 -3 -3 -3 -4 -4 -4 -4 -4 -4 -4 -5 -5 -5 -6 -5 -5
-2 -2 -2 -2 -1 -1 -1 -1 -2 -2 -2 -3 -3 -3 -3 -3 -3 -3 -3 -3 -3 -3 -3 -3 -3 -3 -3 -3 -3 -4 -4 -4 -4 -4 -4 -5 -5 -5 -6 -6 -6 -6
-2 -2 -2 -2 -1 -1 -1 -1 -2 -2 -2 -2 -3 -3 -3 -3 -3 -3 -3 -3 -3 -3 -3 -3 -3 -3 -3 -3 -3 -3 -4 -4 -4 -4 -5 -5 -5 -5 -6 -6 -6 -6
-2 -2 -2 -1 -1 -1 -1 -2 -2 -2 -2 -2 -2 -3 -3 -3 -3 -3 -3 -3 -3 -3 -3 -4 -4 -4 -4 -4 -4 -4 -4 -4 -4 -5 -5 -6 -6 -6 -6 -6 -6 -6
-2 -2 -2 -2 -2 -2 -2 -2 -2 -2 -2 -2 -3 -3 -3 -3 -3 -3 -4 -4 -4 -4 -4 -4 -4 -4 -4 -4 -4 -4 -4 -5 -5 -5 -6 -6 -6 -6 -6 -6 -7 -7
-2 -2 -2 -2 -2 -2 -2 -2 -2 -2 -3 -3 -3 -3 -4 -4 -4 -4 -4 -4 -4 -4 -4 -4 -5 -5 -5 -5 -5 -5 -5 -5 -5 -6 -6 -6 -6 -6 -7 -7 -7 -7
-2 -2 -2 -2 -2 -2 -2 -2 -2 -3 -3 -3 -3 -4 -4 -4 -4 -4 -5 -5 -5 -5 -5 -5 -5 -5 -5 -5 -5 -6 -6 -6 -6 -6 -7 -7 -7 -7 -7 -7 -7 -7
-2 -2 -2 -2 -2 -2 -2 -2 -3 -3 -3 -3 -3 -3 -4 -4 -4 -5 -5 -5 -5 -6 -6 -6 -6 -6 -6 -6 -6 -6 -6 -7 -7 -7 -7 -7 -7 -7 -7 -7 -7 -7
-3 -3 -3 -3 -3 -3 -3 -3 -3 -3 -3 -3 -3 -4 -4 -4 -5 -5 -5 -6 -6 -6 -6 -6 -6 -6 -6 -6 -7 -7 -7 -7 -7 -7 -7 -7 -7 -7 -7 -7 -7 -7
-3 -3 -3 -3 -3 -3 -3 -3 -3 -3 -4 -4 -4 -4 -4 -4 -5 -5 -5 -6 -6 -6 -6 -6 -6 -7 -7 -7 -7 -7 -8 -8 -8 -8 -8 -8 -8 -8 -8 -8 -8 -8
-3 -3 -3 -3 -3 -3 -4 -4 -4 -4 -4 -4 -4 -4 -5 -5 -5 -5 -6 -6 -6 -7 -7 -7 -7 -7 -7 -7 -7 -8 -8 -8 -8 -8 -8 -8 -8 -8 -8 -8 -8 -8
-4 -4 -4 -4 -4 -4 -4 -4 -4 -4 -4 -4 -5 -5 -5 -5 -5 -5 -6 -6 -6 -7 -7 -7 -7 -7 -7 -7 -7 -7 -8 -8 -8 -8 -8 -8 -8 -8 -8 -8 -8 -8
-4 -4 -4 -4 -4 -4 -4 -4 -4 -4 -5 -5 -5 -5 -5 -5 -5 -6 -6 -6 -6 -7 -7 -7 -7 -7 -7 -7 -7 -7 -8 -8 -8 -8 -8 -8 -8 -8 -8 -8 -9 -9
Height
3089 3087 3086 3084 3083 3082 3081 3079 3078 3077 3077 3076 3074 3073 3072 3071 3070 3070 3069 3069 3067 3066 3066 3065 3064 3064 3063 3063 3062 3061 3060 3059 3058 3057 3056 3055 3054 3053 3052 3052 3051 3050
3084 3083 3081 3080 3079 3078 3077 3076 3075 3073 3073 3072 3070 3069 3067 3066 3065 3065 3065 3064 3063 3062 3061 3060 3060 3059 3059 3058 3058 3057 3056 3055 3055 3054 3052 3051 3050 3049 3048 3048 3047 3046
3080 3079 3078 3077 3075 3075 3073 3072 3071 3070 3069 3067 3066 3065 3063 3061 3060 3060 3060 3059 3058 3057 3056 3056 3055 3055 3054 3053 3053 3052 3051 3051 3050 3049 3048 3047 3046 3045 3045 3044 3043 3042
3076 3075 3074 3072 3071 3070 3069 3068 3067 3066 3064 3063 3062 3060 3058 3057 3056 3055 3055 3054 3053 3052 3051 3051 3051 3050 3050 3049 3048 3048 3047 3046 3045 3045 3044 3043 3042 3041 3040 3040 3039 3038
3072 3070 3069 3068 3067 3066 3064 3063 3063 3061 3060 3059 3057 3056 3054 3053 3052 3051 3050 3050 3049 3048 3047 3047 3046 3046 3045 3044 3043 3043 3042 3042 3041 3040 3039 3038 3037 3036 3035 3035 3034 3033
3067 3065 3064 3063 3062 3061 3060 3059 3058 3057 3056 3055 3053 3052 3051 3049 3048 3047 3046 3045 3044 3043 3042 3042 3041 3041 3040 3040 3039 3038 3037 3037 3036 3035 3034 3033 3032 3031 3031 3030 3029 3028
3062 3061 3060 3059 3058 3057 3056 3055 3054 3052 3051 3050 3049 3048 3047 3046 3045 3043 3042 3041 3040 3039 3038 3037 3037 3036 3036 3035 3034 3033 3033 3032 3031 3031 3030 3029 3028 3027 3026 3025 3024 3023
3058 3057 3056 3055 3054 3053 3052 3050 3049 3048 3047 3046 3045 3044 3043 3042 3041 3039 3038 3037 3036 3035 3034 3033 3032 3032 3031 3030 3030 3029 3028 3027 3026 3025 3025 3024 3023 3022 3021 3020 3019 3018
3055 3054 3052 3051 3050 3049 3047 3046 3045 3044 3043 3041 3040 3039 3038 3038 3036 3035 3034 3033 3032 3031 3030 3029 3028 3027 3026 3026 3025 3024 3023 3022 3021 3020 3020 3019 3018 3017 3016 3015 3014 3014
3051 3050 3049 3047 3046 3045 3043 3042 3041 3039 3038 3037 3036 3035 3034 3033 3032 3031 3030 3029 3028 3027 3026 3025 3024 3023 3022 3021 3020 3019 3018 3017 3016 3015 3014 3014 3013 3012 3011 3010 3010 3009
3047 3046 3045 3043 3042 3040 3039 3037 3036 3035 3034 3033 3032 3030 3030 3029 3028 3027 3026 3024 3023 3022 3021 3020 3019 3018 3018 3017 3016 3015 3013 3012 3011 3010 3009 3008 3008 3007 3006 3005 3005 3004
3043 3042 3041 3039 3037 3036 3034 3033 3032 3031 3030 3029 3027 3026 3025 3024 3023 3022 3021 3020 3019 3018 3017 3016 3015 3014 3013 3012 3011 3010 3008 3007 3006 3005 3004 3003 3003 3002 3001 3000 3000 2999
3039 3038 3036 3035 3033 3032 3031 3029 3028 3026 3025 3024 3023 3022 3021 3020 3019 3018 3017 3016 3015 3014 3013 3012 3011 3010 3008 3007 3006 3004 3003 3002 3001 3000 2999 2998 2997 2997 2996 2995 2994 2994
3035 3034 3032 3031 3029 3028 3026 3025 3023 3022 3021 3020 3019 3018 3017 3016 3015 3014 3013 3012 3011 3009 3008 3007 3006 3005 3003 3002 3000 2999 2997 2996 2995 2994 2993 2992 2992 2991 2990 2989 2989 2988
3030 3029 3027 3026 3025 3023 3022 3020 3019 3018 3017 3016 3015 3014 3013 3012 3011 3010 3009 3007 3006 3005 3004 3002 3001 3000 2998 2996 2995 2993 2992 2991 2989 2988 2987 2986 2986 2985 2984 2984 2983 2982
3026 3024 3023 3022 3020 3019 3018 3016 3015 3013 3012 3011 3010 3009 3008 3007 3006 3005 3004 3003 3002 3000 2999 2997 2996 2994 2993 2991 2989 2988 2986 2985 2984 2982 2981 2981 2980 2979 2979 2978 2977 2976
3021 3020 3019 3018 3016 3015 3013 3012 3011 3009 3008 3007 3006 3005 3004 3003 3002 3001 3000 2998 2997 2995 2994 2992 2991 2989 2987 2986 2984 2982 2981 2979 2978 2977 2976 2975 2974 2973 2972 2972 2970 2969
3017 3016 3015 3014 3012 3011 3009 3008 3006 3005 3004 3003 3001 3000 3000 2998 2998 2996 2995 2993 2992 2990 2989 2987 2985 2984 2982 2980 2978 2976 2975 2973 2972 2971 2970 2969 2968 2967 2966 2965 2964 2963
3012 3011 3010 3009 3008 3007 3005 3004 3002 3001 2999 2998 2997 2996 2995 2994 2992 2991 2990 2988 2987 2985 2983 2981 2980 2978 2976 2974 2972 2970 2968 2967 2965 2964 2964 2963 2962 2961 2960 2959 2958 2957
3008 3007 3006 3005 3003 3002 3001 2999 2998 2996 2995 2993 2992 2991 2989 2988 2987 2985 2984 2983 2981 2979 2977 2976 2974 2972 2970 2968 2966 2964 2962 2960 2959 2958 2958 2957 2957 2955 2954 2953 2952 2951
3003 3002 3001 3000 2999 2998 2997 2995 2993 2992 2990 2988 2987 2985 2984 2982 2981 2979 2978 2976 2975 2973 2971 2970 2968 2966 2963 2961 2959 2957 2955 2954 2953 2952 2952 2952 2951 2950 2948 2947 2946 2946
2999 2998 2997 2996 2995 2994 2992 2990 2989 2987 2985 2983 2981 2980 2978 2976 2974 2972 2971 2969 2968 2967 2965 2963 2961 2959 2957 2955 2953 2951 2949 2948 2947 2947 2946 2946 2945 2944 2943 2942 2941 2941
2994 2993 2992 2991 2990 2988 2987 2985 2983 2981 2979 2977 2975 2973 2971 2969 2968 2966 2964 2963 2961 2960 2959 2957 2955 2954 2952 2950 2947 2945 2944 2942 2941 2941 2941 2940 2940 2939 2938 2937 2936 2935
2989 2988 2987 2985 2984 2982 2980 2978 2977 2975 2973 2971 2969 2967 2965 2963 2961 2959 2958 2956 2955 2953 2952 2951 2949 2948 2946 2944 2942 2940 2938 2936 2935 2935 2935 2935 2934 2933 2932 2931 2931 2930
2983 2982 2980 2978 2977 2975 2973 2972 2970 2968 2966 2964 2962 2960 2958 2956 2954 2952 2951 2950 2948 2947 2946 2944 2943 2941 2940 2938 2936 2934 2932 2930 2929 2929 2929 2929 2928 2928 2927 2926 2925 2925
2977 2975 2973 2972 2970 2968 2966 2965 2963 2961 2959 2957 2955 2952 2950 2949 2947 2946 2944 2943 2942 2940 2939 2938 2936 2935 2933 2932 2930 2928 2926 2924 2923 2923 2923 2923 2922 2922 2921 2920 2920 2920
Wind_Speed
36 37 38 38 37 37 36 36 35 34 33 33 34 35 35 34 34 34 34 35 36 37 37 37 37 37 36 35 34 34 33 33 33 33 33 33 33 34 34 33 33 34
37 38 38 39 38 38 38 37 37 36 35 35 36 36 37 37 37 36 35 35 36 38 38 38 38 38 38 37 36 35 35 35 34 34 34 33 34 34 34 34 34 34
38 40 40 40 40 39 38 37 36 36 36 36 37 37 38 38 38 38 36 35 36 38 38 38 39 39 39 38 38 37 37 37 36 35 34 34 34 34 35 35 35 35
40 40 41 41 40 38 37 36 36 35 36 37 37 38 38 39 39 39 38 36 36 38 38 38 39 40 39 39 40 39 38 38 37 36 35 35 35 35 35 35 35 35
41 40 40 40 38 36 35 35 35 35 36 37 37 37 38 39 39 40 39 38 37 38 38 38 39 40 40 40 41 40 39 39 39 38 37 36 36 36 35 36 36 36
40 38 38 36 35 34 34 34 35 35 36 36 36 37 38 39 39 40 41 40 40 40 40 39 39 39 40 41 42 41 41 40 40 39 38 38 37 37 36 36 36 36
37 35 34 33 32 32 33 34 34 35 35 35 36 37 38 39 40 41 41 41 41 41 41 40 39 39 40 41 42 42 42 42 41 40 40 40 39 38 37 37 37 36
34 33 32 31 31 32 33 33 34 34 34 35 35 36 37 38 39 40 41 41 41 41 41 41 41 40 40 41 42 42 43 42 42 42 41 41 41 40 39 38 37 37
33 32 32 31 32 32 32 33 33 34 34 35 35 36 36 36 37 38 39 39 39 39 40 40 41 41 41 41 42 42 42 42 42 43 42 42 42 41 40 39 38 37
32 31 31 31 31 31 31 32 32 32 33 33 34 35 35 35 35 35 36 36 36 36 37 38 39 40 40 41 41 41 41 42 42 43 43 43 43 42 41 40 38 37
30 31 31 30 30 30 31 31 31 31 32 32 33 33 33 33 33 33 33 33 34 34 35 35 36 37 38 38 39 40 41 41 43 43 44 44 44 43 42 40 38 37
30 30 30 30 30 30 31 31 31 31 31 31 32 32 32 32 32 32 32 33 33 34 34 34 35 35 36 37 38 39 40 41 43 44 44 44 44 43 42 41 39 38
29 29 30 30 30 31 31 31 31 31 31 31 31 32 32 33 32 33 33 33 34 35 35 36 36 36 37 38 39 40 41 42 43 44 45 45 44 44 43 42 41 40
30 30 31 31 31 31 31 31 32 32 32 32 32 33 33 33 33 34 34 35 36 37 37 38 39 39 40 40 41 42 42 43 44 44 45 45 45 45 44 43 42 41
31 31 32 32 32 32 32 32 32 32 32 33 33 34 34 35 35 35 36 37 38 39 40 40 40 41 41 42 43 43 44 44 45 45 46 45 45 44 44 44 43 43
33 34 34 33 33 32 32 32 32 32 33 33 33 34 35 36 36 37 38 39 40 40 40 40 40 41 41 42 43 44 45 46 47 47 46 45 44 44 44 44 45 45
35 35 34 33 32 32 32 31 31 31 31 32 32 33 34 36 37 38 40 41 41 41 41 41 40 40 41 42 43 45 46 47 47 47 45 44 44 45 46 46 46 46
35 35 33 32 32 31 31 30 30 30 30 31 32 33 35 36 38 40 41 42 42 42 42 42 41 41 42 43 44 46 47 48 48 46 44 42 43 45 47 47 47 46
35 33 32 32 31 30 30 29 29 30 30 31 33 34 36 38 39 41 42 42 43 43 43 43 43 43 44 45 47 48 48 49 48 45 43 41 43 46 48 47 46 43
33 33 32 31 30 29 29 30 30 31 32 33 35 36 38 40 41 42 42 43 43 43 43 43 43 44 45 46 48 49 49 49 47 45 43 41 41 44 44 43 41 39
32 32 31 31 30 30 30 31 32 33 34 35 37 38 40 41 42 43 43 43 43 43 43 43 43 44 44 45 46 47 47 46 45 43 41 39 38 38 36 34 34 33
32 31 30 30 31 31 32 33 33 35 36 36 38 39 41 42 43 44 44 44 43 42 42 43 43 43 43 43 44 44 44 44 43 42 40 39 38 36 33 32 31 31
32 31 31 32 32 33 34 35 36 37 37 38 39 40 41 42 43 44 44 44 43 43 43 44 43 42 41 41 42 43 43 43 42 41 40 38 37 35 33 32 32 32
32 33 33 34 35 36 37 38 39 39 40 40 41 41 41 42 42 43 43 43 43 43 44 44 43 42 41 40 41 42 43 43 43 41 39 37 36 35 33 32 32 31
35 36 37 38 39 40 40 41 41 42 42 42 42 42 42 43 43 43 43 43 44 44 45 45 44 43 42 41 41 41 42 43 43 40 37 36 36 35 35 35 35 33
38 39 41 42 43 43 44 44 44 43 43 43 43 43 43 43 44 44 43 44 44 44 45 46 45 45 44 44 43 42 42 42 42 41 40 38 37 37 38 38 38 36
Wind_Direction
294 295 296 297 299 301 302 303 303 302 302 300 298 296 294 291 290 289 290 291 291 291 292 293 295 297 299 301 301 299 296 295 295 294 291 289 287 285 285 286 286 285
293 294 295 296 297 298 298 299 299 299 300 299 296 295 292 290 288 288 287 288 288 289 290 291 292 294 296 298 299 299 297 295 295 296 293 291 288 286 286 286 286 286
293 293 293 293 293 294 294 295 296 297 297 296 294 293 291 289 288 287 285 285 285 286 288 289 290 292 294 296 297 298 297 296 295 296 295 293 290 288 287 286 286 287
292 292 290 289 290 291 292 293 295 295 294 293 292 291 289 288 288 286 284 282 283 284 285 287 287 289 291 293 294 295 296 295 295 296 296 296 293 290 289 287 287 288
293 291 289 287 288 290 291 292 293 292 291 291 290 289 288 287 287 286 283 281 280 280 282 284 285 286 288 290 291 293 293 294 295 294 295 296 295 292 291 289 288 289
292 289 287 287 288 289 290 291 290 290 290 289 289 288 288 287 286 285 284 282 280 279 279 280 282 283 285 287 288 290 291 292 293 293 293 294 294 293 292 291 289 289
290 287 286 286 288 289 289 289 289 288 288 287 287 287 287 287 286 285 284 283 281 279 278 279 280 281 282 284 285 287 289 290 290 291 291 292 293 293 293 292 291 291
287 286 285 286 287 288 288 287 287 286 286 286 287 287 287 286 285 285 284 283 282 281 280 279 279 280 280 281 283 284 286 287 288 288 289 290 291 292 293 293 293 293
283 283 284 285 286 286 286 285 285 285 286 287 287 286 286 285 284 283 283 282 281 281 280 280 280 280 280 280 281 282 284 285 286 287 288 289 290 292 293 293 293 294
280 281 282 283 284 284 284 284 285 285 286 286 286 286 285 284 283 282 282 281 281 280 279 280 280 281 281 281 281 282 282 283 284 286 287 288 289 291 292 293 293 293
280 282 283 284 285 285 285 285 286 286 286 286 285 285 283 282 281 281 281 282 282 282 281 281 281 282 282 282 282 282 282 283 283 285 286 287 289 290 291 291 291 291
282 284 286 287 289 288 288 288 288 288 287 286 285 284 283 282 281 281 282 282 283 284 284 284 284 284 284 284 284 283 283 284 284 285 286 287 288 289 289 289 289 289
285 287 289 290 291 291 291 291 290 289 288 287 286 285 284 283 282 283 283 284 284 285 285 285 285 285 286 286 286 286 286 285 285 286 287 287 287 287 286 287 287 288
288 291 293 294 294 294 293 292 290 289 288 287 286 285 284 283 283 284 285 286 286 286 285 285 285 286 286 286 286 286 285 286 286 287 287 286 286 285 284 285 286 286
292 295 297 297 296 294 292 290 289 288 287 287 286 285 284 284 284 286 287 288 288 287 287 287 287 287 287 287 286 286 286 287 287 287 286 285 285 283 283 283 284 284
295 297 298 297 295 293 291 290 289 288 288 287 287 286 286 285 285 286 288 289 289 289 288 287 287 287 287 287 287 287 287 287 287 287 287 286 285 283 282 282 281 281
295 296 296 295 294 293 292 290 288 287 287 286 286 286 286 285 286 286 288 288 288 288 288 287 286 286 285 285 285 285 286 286 287 288 289 288 287 285 283 281 279 278
293 294 294 294 294 293 292 290 288 286 285 285 284 285 285 285 286 287 287 288 288 288 287 287 287 286 285 284 284 284 285 285 286 288 289 289 288 286 282 279 277 277
291 291 291 292 293 292 291 289 288 287 286 285 285 285 285 286 286 287 287 288 288 287 287 287 287 287 286 285 284 284 284 285 286 286 287 288 288 287 285 283 281 281
289 289 290 291 291 291 290 289 288 288 287 287 287 287 287 287 287 287 288 288 288 288 288 289 290 290 288 287 285 285 285 285 286 286 287 288 289 290 290 289 287 285
287 288 290 290 290 290 289 288 288 288 288 289 289 289 288 288 288 288 288 289 289 289 290 292 293 293 291 289 287 286 285 285 285 286 287 288 289 291 291 291 290 287
288 289 290 290 289 289 289 289 290 290 290 290 290 289 288 288 287 287 288 289 290 290 292 294 294 294 293 291 289 287 286 286 286 286 286 287 289 290 288 286 286 286
289 290 291 291 290 291 291 291 292 291 292 291 291 290 289 288 288 287 287 288 289 290 291 293 293 293 294 293 290 287 286 286 285 286 286 288 289 288 284 283 283 283
292 293 294 294 294 294 294 293 293 293 292 292 291 290 290 290 289 288 287 287 288 288 290 291 292 293 294 294 291 288 286 284 284 284 287 290 289 285 281 280 281 279
295 296 297 297 297 296 296 295 294 293 292 291 290 290 290 290 290 289 288 287 287 287 289 290 291 291 292 292 291 289 287 286 284 284 287 290 289 285 281 278 277 276
297 298 298 298 298 297 296 295 294 292 292 291 290 290 289 289 289 289 288 287 287 287 288 289 290 289 290 290 289 288 288 288 285 283 284 286 288 287 284 280 277 278